Regional Weather Roundup
Issued by NWS

Home | Current Version | Previous Version | Graphics & Text | Print | Product List | Glossary On
Versions: 1 2 3 4 5 6 7 8 9 10 11 12 13 14 15 16 17 18 19 20 21 22 23 24 25 26 27 28 29 30 31 32 33 34 35 36 37 38 39 40 41 42 43 44 45 46 47 48 49 50
000
ASUS45 KTFX 061804
RWRMT
MONTANA HOURLY WEATHER ROUNDUP
NATIONAL WEATHER SERVICE GREAT FALLS MT
1104 AM MST FRI MAR 6 2015

NOTE: "FAIR" INDICATES FEW OR NO CLOUDS BELOW 12000 FEET WITH NO
SIGNIFICANT WEATHER AND/OR OBSTRUCTIONS TO VISIBILITY.

* THESE STATIONS ARE NOT UNDER NWS QUALITY CONTROL. THEY DO NOT
   REPORT WEATHER SUCH AS PRECIPITATION OR FOG.

MTZ001>007-043-061900-
WEST OF THE DIVIDE
CITY           SKY/WX    TMP DP  RH WIND       PRES   REMARKS
KALISPELL      PTSUNNY   36  21  54 CALM      30.36S
MISSOULA       PTCLDY    41  21  45 W5        30.39F
BUTTE          PTCLDY    45  16  31 N5        30.33F
MULLAN PASS    SUNNY     37  16  42 SW6       30.35R WCI  32
* ESSEX        N/A       33  19  56 E1         N/A
* EUREKA APT   PTCLDY    46  19  34 SE14      30.32F
* HAMILTON APT SUNNY     52  16  24 S14       30.36F
* LIBBY APT    PTCLDY    37  21  52 N3        30.36F
* LINCOLN      N/A       39  16  39 S3G9       N/A
* LOOKOUT PASS N/A       43  18  37 VRB4       N/A
* POLSON       N/A       44  21  40 S3         N/A
* RONAN APT    PTCLDY    46  25  44 N/A        N/A
* SEELEY LAKE  N/A       40  19  43 N/A        N/A
* THOMP F APT  SUNNY     35  18  50 SW3        N/A
$$

MTZ008-052>055-061900-
SOUTHWEST MONTANA
CITY           SKY/WX    TMP DP  RH WIND       PRES   REMARKS
BOZEMAN        PTSUNNY   46  19  34 CALM      30.31S
DILLON         PTSUNNY   48  14  25 W10G22    30.34R
* W YELLOWSTON SUNNY     31  14  49 NW2        N/A
* THREE FORKS  PTSUNNY   46  19  34 N/A        N/A
* BOULDER HILL N/A       44  14  30 SW2G9      N/A
* MONIDA PASS  N/A       34  15  46 SE8        N/A   WCI  27
* RAYNOLDS PAS N/A       23   6  48 SE22       N/A   WCI   8
* WHITEHALL    N/A       49  13  23 SW10G20    N/A
* WISE RIVER   N/A       46  14  27 SW9G20     N/A
$$

MTZ009>010-012-014-046-048-049-054-061900-
EAST SLOPES AND CENTRAL MONTANA
CITY           SKY/WX    TMP DP  RH WIND       PRES   REMARKS
CUT BANK       CLOUDY    48  21  34 W25G37    30.13R
GREAT FALLS    PTCLDY    54  18  24 SW26G36   30.16R
HELENA         CLOUDY    48  18  30 W17       30.26F
* DEARBORN     N/A       48  18  30 S9G18      N/A
* EAST GLACIER N/A       38  20  48 W24G35     N/A   WCI  27
* MONARCH      N/A       42  16  35 SW20G26    N/A
* PENDROY      N/A       46  23  40 W17G22     N/A
* ROGERS PASS  N/A       35  15  44 SE22G43    N/A   WCI  23
* SWEET GRASS  N/A       47  22  37 NW20G34    N/A
$$

MTZ011-013-016-021-035-040-045-047-050-051-061900-
NORTH CENTRAL MONTANA
CITY           SKY/WX    TMP DP  RH WIND       PRES   REMARKS
HAVRE          PTCLDY    55  25  31 W18G24    30.08F
LEWISTOWN      PTCLDY    48  27  44 W14       30.14S
* N BAR RANCH  SUNNY     50  21  32 NW16G25   30.14R
* CHINOOK      PTCLDY    52  21  30 W20G26    30.07R
* FORT BENTON  PTCLDY    57  21  25 SW21G28   30.14R
* CHESTER      N/A       52  20  28 NW15G27    N/A
* DENTON       N/A       52  23  32 W27G35     N/A
* GEYSER       N/A       50  21  32 W27G33     N/A
* JUDITH GAP   N/A       47  22  37 W16G21     N/A
* LOMA         N/A       55  23  29 SW20G31    N/A
$$

MTZ017>020-022>027-061-062-061900-
NORTHEAST MONTANA
CITY           SKY/WX    TMP DP  RH WIND       PRES   REMARKS
GLASGOW        PTCLDY    48  23  37 W15       30.03S
GLENDIVE       SUNNY     52  21  30 W20       30.06S
JORDAN         PTCLDY    50  21  32 W21G29    30.07F
SIDNEY         PTCLDY    43  21  42 S9        30.04F
WOLF POINT     PTSUNNY   48  25  41 W15       30.02S
* BEAVER HILL  N/A       46  20  36 SW19G24    N/A
* CIRCLE       N/A       48  25  41 SW16G24    N/A
* LINDSAY DVD  N/A       47  20  34 W22G29     N/A
* NAVAJO       N/A       39  25  57 W20G26     N/A   WCI  29
* PLENTYWOOD A CLOUDY    39  25  57 SW14      29.96S WCI  31
* POPLAR APT   PTSUNNY   43  23  45 SW13      30.02S
* SACO         N/A       48  24  39 W17G25     N/A
$$

MTZ028>042-056>058-061900-
SOUTHCENTRAL AND SOUTHEAST MONTANA
CITY           SKY/WX    TMP DP  RH WIND       PRES   REMARKS
BAKER          SUNNY     48  19  32 W22       30.07F
BILLINGS       PTCLDY    55  16  21 W28G36    30.16F
LIVINGSTON     PTSUNNY   54  16  22 W23G36    30.23S
MILES CITY     SUNNY     55  19  24 N/A       30.10S
* FORSYTH APT  SUNNY     54  19  25 W14G25    30.12S
* LAUREL APT   PTCLDY    55  18  23 SW22G28    N/A
* ROUNDUP APT  PTCLDY    54  14  20 SW20       N/A
* ALZADA       N/A       48  21  34 SW13       N/A
* HYSHAM       N/A       51  17  26 W10G16     N/A
* REED POINT   N/A       54  22  29 W23G32     N/A
$$

REGIONAL REPORTS...DAKOTAS
CITY           SKY/WX    TMP DP  RH WIND       PRES   REMARKS
WILLISTON      CLOUDY    37  23  57 S9        30.01F WCI  30
DICKINSON      CLOUDY    45  18  34 W13       30.02F
BEACH          SUNNY     46  19  34 W16G24    30.05F
CROSBY         SUNNY     34  25  70 SW17      29.96F WCI  23
WATFORD CITY   SUNNY     36  23  59 SW9       30.00F WCI  29
BISMARCK       PTSUNNY   36  18  48 CALM      30.11F
GRAND FORKS    PTSUNNY   32  16  52 W6        30.07F WCI  26
FARGO          SUNNY     32  18  56 NW12      30.09F WCI  23
BUFFALO SD     PTSUNNY   50  18  28 W25G33    30.03S
RAPID CITY     PTSUNNY   54  18  24 NW15G20   30.13S
$$

REGIONAL REPORTS...WYOMING/IDAHO/WASHINGTON
CITY           SKY/WX    TMP DP  RH WIND       PRES   REMARKS
GILLETTE       SUNNY     48  18  30 NW18G24   30.18S
SHERIDAN       SUNNY     46  21  37 SW5       30.19S
CODY           PTCLDY    48  16  28 W9G24     30.22S
YELLOWSTONE LA PTCLDY    19   9  65 E3        30.40F
SALMON         SUNNY     36  18  48 CALM      30.46F
MULLAN PASS    SUNNY     37  16  42 SW6       30.35S WCI  32
SAND POINT     SUNNY     36  28  73 CALM      30.40S
SPOKANE        PTSUNNY   46  27  48 SE6       30.37S

$$




USA.gov is the U.S. government's official web portal to all federal, state and local government web resources and services.